,,,PA_Meas_PMT16A,,PR_Meas_QMR101_102,,RH_Meas_QMH101,,SR_Meas_QMS101,,TA_Meas_QMH101,,GenWind,,GenWind,
date,time,status,PA,status,PR,status,RH,status,SR,status,TA,status,DirAvg,status,SpdAvg,
2010-09-09, 00:00:05,VALID,1002.28,VALID,0,VALID,92.2116,VALID,0,VALID,22.3941,VALID,358,VALID,0,
2010-09-09, 00:01:05,VALID,1002.24,VALID,0,VALID,92.265,VALID,0,VALID,22.3746,VALID,358,VALID,0,
2010-09-09, 00:02:05,VALID,1002.26,VALID,0,VALID,92.3031,VALID,0,VALID,22.3746,VALID,358,VALID,0.197656,
2010-09-09, 00:03:05,VALID,1002.24,VALID,0,VALID,92.2574,VALID,0,VALID,22.3356,VALID,358,VALID,0.1625,
2010-09-09, 00:04:05,VALID,1002.23,VALID,0,VALID,92.1963,VALID,0,VALID,22.3551,VALID,358,VALID,0.212109,
2010-09-09, 00:05:05,VALID,1002.24,VALID,0,VALID,92.1811,VALID,0,VALID,22.3746,VALID,358,VALID,0.157813,
2010-09-09, 00:06:05,VALID,1002.27,VALID,0,VALID,92.1506,VALID,0,VALID,22.4136,VALID,358,VALID,0.0835937,
2010-09-09, 00:07:05,VALID,1002.26,VALID,0,VALID,92.0895,VALID,0,VALID,22.4136,VALID,358,VALID,0,
2010-09-09, 00:08:05,VALID,1002.22,VALID,0,VALID,92.0285,VALID,0,VALID,22.3941,VALID,358,VALID,0,
2010-09-09, 00:09:05,VALID,1002.24,VALID,0,VALID,91.9522,VALID,0,VALID,22.3941,VALID,358,VALID,0,
2010-09-09, 00:10:05,VALID,1002.18,VALID,0,VALID,91.8225,VALID,0,VALID,22.4136,VALID,358,VALID,0.312109,
2010-09-09, 00:11:05,VALID,1002.2,VALID,0,VALID,91.708,VALID,0,VALID,22.3941,VALID,358,VALID,0.303125,
2010-09-09, 00:12:05,VALID,1002.18,VALID,0,VALID,91.6012,VALID,0,VALID,22.3746,VALID,358,VALID,0.262891,
2010-09-09, 00:13:05,VALID,1002.17,VALID,0,VALID,91.5478,VALID,0,VALID,22.3941,VALID,358,VALID,0.278125,
2010-09-09, 00:14:05,VALID,1002.15,VALID,0,VALID,91.502,VALID,0,VALID,22.3746,VALID,358,VALID,0.152734,
2010-09-09, 00:15:05,VALID,1002.14,VALID,0,VALID,91.647,VALID,0,VALID,22.3746,VALID,358,VALID,0.170703,
2010-09-09, 00:16:05,VALID,1002.16,VALID,0,VALID,91.7843,VALID,0,VALID,22.3746,VALID,358,VALID,0.116406,
2010-09-09, 00:17:05,VALID,1002.12,VALID,0,VALID,91.8835,VALID,0,VALID,22.3551,VALID,358,VALID,0.154687,
2010-09-09, 00:18:05,VALID,1002.1,VALID,0,VALID,91.9827,VALID,0,VALID,22.3356,VALID,358,VALID,0.228516,
2010-09-09, 00:19:05,VALID,1002.06,VALID,0,VALID,92.0819,VALID,0,VALID,22.3161,VALID,358,VALID,0.259375,
2010-09-09, 00:20:05,VALID,1002.05,VALID,0,VALID,92.2268,VALID,0,VALID,22.2966,VALID,358,VALID,0.286719,
2010-09-09, 00:21:05,VALID,1002,VALID,0,VALID,92.3413,VALID,0,VALID,22.2966,VALID,358,VALID,0.245312,
2010-09-09, 00:22:05,VALID,1001.98,VALID,0,VALID,92.4405,VALID,0,VALID,22.2966,VALID,358,VALID,0.35,
2010-09-09, 00:23:05,VALID,1001.95,VALID,0,VALID,92.4863,VALID,0,VALID,22.2576,VALID,358,VALID,0.469141,
2010-09-09, 00:24:05,VALID,1001.93,VALID,0,VALID,92.5626,VALID,0,VALID,22.2381,VALID,358,VALID,0.682031,
2010-09-09, 00:25:05,VALID,1001.92,VALID,0,VALID,92.677,VALID,0.112286,VALID,22.2381,VALID,358,VALID,0.755859,
2010-09-09, 00:26:05,VALID,1001.94,VALID,0,VALID,92.7533,VALID,0,VALID,22.2592,VALID,358,VALID,0.516016,
2010-09-09, 00:27:05,VALID,1001.92,VALID,0,VALID,92.7991,VALID,0,VALID,22.2186,VALID,358,VALID,0.524609,
2010-09-09, 00:28:05,VALID,1001.93,VALID,0,VALID,92.8143,VALID,0,VALID,22.1795,VALID,358,VALID,0.526953,
2010-09-09, 00:29:05,VALID,1001.92,VALID,0,VALID,92.8525,VALID,0,VALID,22.1795,VALID,358,VALID,0.464453,
2010-09-09, 00:30:05,VALID,1001.88,VALID,0,VALID,92.8906,VALID,0,VALID,22.16,VALID,358,VALID,0.326562,
2010-09-09, 00:31:05,VALID,1001.92,VALID,0,VALID,92.9288,VALID,0,VALID,22.16,VALID,358,VALID,0.192188,
2010-09-09, 00:32:05,VALID,1001.89,VALID,0,VALID,92.9898,VALID,0,VALID,22.1405,VALID,358,VALID,0.291406,
2010-09-09, 00:33:05,VALID,1001.84,VALID,0,VALID,93.0051,VALID,0,VALID,22.1405,VALID,358,VALID,0.391797,
2010-09-09, 00:34:05,VALID,1001.84,VALID,0,VALID,93.0585,VALID,0,VALID,22.1015,VALID,358,VALID,0.402734,
2010-09-09, 00:35:05,VALID,1001.83,VALID,0,VALID,93.0814,VALID,0,VALID,22.1015,VALID,358,VALID,0.434766,
2010-09-09, 00:36:05,VALID,1001.82,VALID,0,VALID,93.089,VALID,0,VALID,22.1015,VALID,358,VALID,0.404687,
2010-09-09, 00:37:05,VALID,1001.8,VALID,0,VALID,93.1119,VALID,0,VALID,22.082,VALID,358,VALID,0.106641,
2010-09-09, 00:38:05,VALID,1001.77,VALID,0,VALID,93.1271,VALID,0,VALID,22.082,VALID,358,VALID,0,
2010-09-09, 00:39:05,VALID,1001.78,VALID,0,VALID,93.1424,VALID,0,VALID,22.082,VALID,358,VALID,0,
2010-09-09, 00:40:05,VALID,1001.79,VALID,0,VALID,93.1424,VALID,0,VALID,22.0625,VALID,358,VALID,0,
2010-09-09, 00:41:05,VALID,1001.74,VALID,0,VALID,93.1119,VALID,0,VALID,22.043,VALID,358,VALID,0,
2010-09-09, 00:42:05,VALID,1001.77,VALID,0,VALID,93.0966,VALID,0,VALID,22.0235,VALID,358,VALID,0,
2010-09-09, 00:43:05,VALID,1001.79,VALID,0,VALID,93.1119,VALID,0,VALID,22.004,VALID,358,VALID,0,
2010-09-09, 00:44:05,VALID,1001.74,VALID,0,VALID,93.1195,VALID,0,VALID,22.0252,VALID,358,VALID,0,
2010-09-09, 00:45:05,VALID,1001.73,VALID,0,VALID,93.1195,VALID,0,VALID,21.9845,VALID,358,VALID,0,
2010-09-09, 00:46:05,VALID,1001.71,VALID,0,VALID,93.1195,VALID,0,VALID,21.9845,VALID,358,VALID,0.0691406,
2010-09-09, 00:47:05,VALID,1001.72,VALID,0,VALID,93.15,VALID,0,VALID,21.965,VALID,90,VALID,0.830859,
2010-09-09, 00:48:05,VALID,1001.71,VALID,0,VALID,93.1271,VALID,0,VALID,22.004,VALID,106,VALID,1.19531,
2010-09-09, 00:49:05,VALID,1001.72,VALID,0,VALID,93.15,VALID,0,VALID,22.043,VALID,113,VALID,1.26328,
2010-09-09, 00:50:05,VALID,1001.7,VALID,0,VALID,93.1348,VALID,0,VALID,22.0625,VALID,113,VALID,1.35508,
2010-09-09, 00:51:05,VALID,1001.68,VALID,0,VALID,93.1119,VALID,0,VALID,22.0625,VALID,116,VALID,1.38359,
2010-09-09, 00:52:05,VALID,1001.69,VALID,0,VALID,93.1043,VALID,0,VALID,22.082,VALID,119,VALID,1.33242,
2010-09-09, 00:53:05,VALID,1001.7,VALID,0,VALID,93.0966,VALID,0,VALID,22.082,VALID,120,VALID,1.23008,
2010-09-09, 00:54:05,VALID,1001.66,VALID,0,VALID,93.0737,VALID,0,VALID,22.1227,VALID,122,VALID,1.13867,
2010-09-09, 00:55:05,VALID,1001.65,VALID,0,VALID,93.0432,VALID,0,VALID,22.1015,VALID,125,VALID,1.19492,
2010-09-09, 00:56:05,VALID,1001.63,VALID,0,VALID,93.0203,VALID,0,VALID,22.1405,VALID,130,VALID,1.11406,
2010-09-09, 00:57:05,VALID,1001.59,VALID,0,VALID,93.0051,VALID,0,VALID,22.1405,VALID,131,VALID,0.849219,
2010-09-09, 00:58:05,VALID,1001.6,VALID,0,VALID,92.9898,VALID,0,VALID,22.16,VALID,131,VALID,0.724219,
2010-09-09, 00:59:05,VALID,1001.59,VALID,0,VALID,92.9669,VALID,0,VALID,22.1812,VALID,131,VALID,0.765625,
2010-09-09, 01:00:05,VALID,1001.56,VALID,0,VALID,92.9745,VALID,0,VALID,22.1795,VALID,131,VALID,0.568359,
2010-09-09, 01:01:05,VALID,1001.59,VALID,0,VALID,92.9517,VALID,0,VALID,22.2007,VALID,130,VALID,0.456641,
2010-09-09, 01:02:05,VALID,1001.57,VALID,0,VALID,92.9745,VALID,0,VALID,22.1795,VALID,130,VALID,0.289844,
2010-09-09, 01:03:05,VALID,1001.52,VALID,0,VALID,92.9898,VALID,0,VALID,22.199,VALID,129,VALID,0.459766,
2010-09-09, 01:04:05,VALID,1001.51,VALID,0,VALID,92.9974,VALID,0,VALID,22.2202,VALID,106,VALID,0.552344,
2010-09-09, 01:05:05,VALID,1001.48,VALID,0,VALID,92.9517,VALID,0,VALID,22.199,VALID,79,VALID,0.583594,
2010-09-09, 01:06:05,VALID,1001.48,VALID,0,VALID,92.9059,VALID,0,VALID,22.2186,VALID,77,VALID,0.671094,
2010-09-09, 01:07:05,VALID,1001.49,VALID,0,VALID,92.7838,VALID,0,VALID,22.1795,VALID,27,VALID,1.11523,
2010-09-09, 01:08:05,VALID,1001.47,VALID,0,VALID,92.6236,VALID,0,VALID,22.1405,VALID,23,VALID,0.996484,
2010-09-09, 01:09:05,VALID,1001.49,VALID,0,VALID,92.532,VALID,0,VALID,22.121,VALID,36,VALID,0.841797,
2010-09-09, 01:10:05,VALID,1001.47,VALID,0,VALID,92.4328,VALID,0,VALID,22.0625,VALID,42,VALID,0.766797,
2010-09-09, 01:11:05,VALID,1001.47,VALID,0,VALID,92.3947,VALID,0,VALID,22.043,VALID,54,VALID,1.02109,
2010-09-09, 01:12:05,VALID,1001.46,VALID,0,VALID,92.4023,VALID,0,VALID,22.043,VALID,58,VALID,0.875,
2010-09-09, 01:13:05,VALID,1001.45,VALID,0,VALID,92.3871,VALID,0,VALID,22.043,VALID,58,VALID,0.798437,
2010-09-09, 01:14:05,VALID,1001.43,VALID,0,VALID,92.3566,VALID,0,VALID,22.043,VALID,58,VALID,0.723828,
2010-09-09, 01:15:05,VALID,1001.42,VALID,0,VALID,92.3871,VALID,0,VALID,22.043,VALID,58,VALID,0.698438,
2010-09-09, 01:16:05,VALID,1001.41,VALID,0,VALID,92.41,VALID,0,VALID,22.0625,VALID,58,VALID,0.701953,
2010-09-09, 01:17:05,VALID,1001.43,VALID,0,VALID,92.4939,VALID,0,VALID,22.0625,VALID,54,VALID,0.762891,
2010-09-09, 01:18:05,VALID,1001.43,VALID,0,VALID,92.5168,VALID,0,VALID,22.043,VALID,48,VALID,0.811719,
2010-09-09, 01:19:05,VALID,1001.41,VALID,0,VALID,92.5244,VALID,0,VALID,22.0235,VALID,43,VALID,1.09102,
2010-09-09, 01:20:05,VALID,1001.44,VALID,0,VALID,92.5015,VALID,0,VALID,22.0235,VALID,40,VALID,1.08281,
2010-09-09, 01:21:05,VALID,1001.42,VALID,0,VALID,92.5549,VALID,0,VALID,22.004,VALID,34,VALID,1.05313,
2010-09-09, 01:22:05,VALID,1001.46,VALID,0,VALID,92.5931,VALID,0,VALID,22.004,VALID,29,VALID,1.23086,
2010-09-09, 01:23:05,VALID,1001.47,VALID,0,VALID,92.6694,VALID,0,VALID,22.004,VALID,30,VALID,1.12344,
2010-09-09, 01:24:05,VALID,1001.45,VALID,0,VALID,92.7609,VALID,0,VALID,22.004,VALID,31,VALID,0.994141,
2010-09-09, 01:25:05,VALID,1001.48,VALID,0,VALID,92.8296,VALID,0,VALID,22.004,VALID,38,VALID,0.914844,
2010-09-09, 01:26:05,VALID,1001.43,VALID,0,VALID,92.8983,VALID,0,VALID,22.004,VALID,43,VALID,0.956641,
2010-09-09, 01:27:05,VALID,1001.42,VALID,0,VALID,92.9288,VALID,0,VALID,22.0235,VALID,44,VALID,1.02266,
2010-09-09, 01:28:05,VALID,1001.43,VALID,0,VALID,92.9593,VALID,0,VALID,22.0235,VALID,44,VALID,0.808984,
2010-09-09, 01:29:05,VALID,1001.42,VALID,0,VALID,92.9822,VALID,0,VALID,22.0235,VALID,44,VALID,0.698828,
2010-09-09, 01:30:05,VALID,1001.38,VALID,0,VALID,92.9822,VALID,0,VALID,22.043,VALID,45,VALID,0.806641,
2010-09-09, 01:31:05,VALID,1001.39,VALID,0,VALID,93.0127,VALID,0,VALID,22.043,VALID,50,VALID,0.805859,
2010-09-09, 01:32:05,VALID,1001.38,VALID,0,VALID,93.0051,VALID,0,VALID,22.0642,VALID,57,VALID,0.684375,
2010-09-09, 01:33:05,VALID,1001.37,VALID,0,VALID,93.0203,VALID,0,VALID,22.043,VALID,58,VALID,0.896484,
2010-09-09, 01:34:05,VALID,1001.36,VALID,0,VALID,93.0127,VALID,0,VALID,22.043,VALID,67,VALID,0.720312,
2010-09-09, 01:35:05,VALID,1001.32,VALID,0,VALID,92.9745,VALID,0,VALID,22.0235,VALID,72,VALID,0.733984,
2010-09-09, 01:36:05,VALID,1001.31,VALID,0,VALID,92.9364,VALID,0,VALID,22.004,VALID,72,VALID,0.697266,
2010-09-09, 01:37:05,VALID,1001.31,VALID,0,VALID,92.9059,VALID,0,VALID,21.965,VALID,72,VALID,0.607031,
2010-09-09, 01:38:05,VALID,1001.29,VALID,0,VALID,92.8525,VALID,0,VALID,21.9455,VALID,72,VALID,0.650391,
2010-09-09, 01:39:05,VALID,1001.29,VALID,0,VALID,92.8448,VALID,0,VALID,21.9455,VALID,72,VALID,0.584766,
2010-09-09, 01:40:05,VALID,1001.32,VALID,0,VALID,92.8067,VALID,0,VALID,21.926,VALID,72,VALID,0.502344,
2010-09-09, 01:41:05,VALID,1001.31,VALID,0,VALID,92.8143,VALID,0,VALID,21.887,VALID,72,VALID,0.430859,
2010-09-09, 01:42:05,VALID,1001.32,VALID,0,VALID,92.7838,VALID,0,VALID,21.8675,VALID,72,VALID,0.196484,
2010-09-09, 01:43:05,VALID,1001.31,VALID,0,VALID,92.7609,VALID,0,VALID,21.8285,VALID,72,VALID,0,
2010-09-09, 01:44:05,VALID,1001.34,VALID,0,VALID,92.7457,VALID,0,VALID,21.809,VALID,72,VALID,0,
2010-09-09, 01:45:05,VALID,1001.33,VALID,0,VALID,92.7457,VALID,0,VALID,21.7895,VALID,72,VALID,0,
2010-09-09, 01:46:05,VALID,1001.29,VALID,0,VALID,92.7762,VALID,0,VALID,21.7488,VALID,72,VALID,0,
2010-09-09, 01:47:05,VALID,1001.29,VALID,0,VALID,92.8067,VALID,0,VALID,21.7505,VALID,72,VALID,0,
2010-09-09, 01:48:05,VALID,1001.28,VALID,0,VALID,92.8448,VALID,0,VALID,21.7505,VALID,72,VALID,0,
2010-09-09, 01:49:05,VALID,1001.28,VALID,0,VALID,92.8754,VALID,0,VALID,21.731,VALID,72,VALID,0,
2010-09-09, 01:50:05,VALID,1001.28,VALID,0,VALID,92.9364,VALID,0,VALID,21.7115,VALID,72,VALID,0,
2010-09-09, 01:51:05,VALID,1001.29,VALID,0,VALID,92.9974,VALID,0,VALID,21.731,VALID,72,VALID,0,
2010-09-09, 01:52:05,VALID,1001.27,VALID,0,VALID,93.0585,VALID,0,VALID,21.731,VALID,72,VALID,0,
2010-09-09, 01:53:05,VALID,1001.25,VALID,0,VALID,93.0966,VALID,0,VALID,21.731,VALID,72,VALID,0,
2010-09-09, 01:54:05,VALID,1001.27,VALID,0,VALID,93.2034,VALID,0,VALID,21.77,VALID,72,VALID,0.378906,
2010-09-09, 01:55:05,VALID,1001.28,VALID,0,VALID,93.234,VALID,0,VALID,21.809,VALID,72,VALID,0.402734,
2010-09-09, 01:56:05,VALID,1001.26,VALID,0,VALID,93.2568,VALID,0,VALID,21.809,VALID,72,VALID,0.389062,
2010-09-09, 01:57:05,VALID,1001.22,VALID,0,VALID,93.2645,VALID,0,VALID,21.8285,VALID,72,VALID,0.366406,
2010-09-09, 01:58:05,VALID,1001.23,VALID,0,VALID,93.3026,VALID,0,VALID,21.8285,VALID,72,VALID,0.43125,
2010-09-09, 01:59:05,VALID,1001.22,VALID,0,VALID,93.3103,VALID,0,VALID,21.848,VALID,72,VALID,0.539063,
2010-09-09, 02:00:05,VALID,1001.21,VALID,0,VALID,93.3179,VALID,0,VALID,21.848,VALID,72,VALID,0.640234,
2010-09-09, 02:01:05,VALID,1001.23,VALID,0,VALID,93.3179,VALID,0,VALID,21.848,VALID,43,VALID,0.807422,
2010-09-09, 02:02:05,VALID,1001.23,VALID,0,VALID,93.3331,VALID,0,VALID,21.848,VALID,43,VALID,0.829687,
2010-09-09, 02:03:05,VALID,1001.21,VALID,0,VALID,93.3179,VALID,0,VALID,21.8496,VALID,43,VALID,0.757813,
2010-09-09, 02:04:05,VALID,1001.23,VALID,0,VALID,93.295,VALID,0,VALID,21.8285,VALID,43,VALID,0.858594,
2010-09-09, 02:05:05,VALID,1001.19,VALID,0,VALID,93.2645,VALID,0,VALID,21.8285,VALID,43,VALID,0.794922,
2010-09-09, 02:06:05,VALID,1001.18,VALID,0,VALID,93.2263,VALID,0,VALID,21.7895,VALID,43,VALID,0.769141,
2010-09-09, 02:07:05,VALID,1001.16,VALID,0,VALID,93.1958,VALID,0,VALID,21.7505,VALID,43,VALID,0.74375,
2010-09-09, 02:08:04,VALID,1001.2,VALID,0,VALID,93.1577,VALID,0,VALID,21.731,VALID,43,VALID,0.785937,
2010-09-09, 02:09:04,VALID,1001.23,VALID,0,VALID,93.1271,VALID,0,VALID,21.6903,VALID,43,VALID,0.773047,
2010-09-09, 02:10:04,VALID,1001.19,VALID,0,VALID,93.1195,VALID,0,VALID,21.692,VALID,43,VALID,0.698828,
2010-09-09, 02:11:04,VALID,1001.22,VALID,0,VALID,93.1271,VALID,0,VALID,21.692,VALID,43,VALID,0.601953,
2010-09-09, 02:12:04,VALID,1001.2,VALID,0,VALID,93.1424,VALID,0,VALID,21.692,VALID,43,VALID,0.353906,
2010-09-09, 02:13:04,VALID,1001.18,VALID,0,VALID,93.15,VALID,0,VALID,21.6725,VALID,43,VALID,0.315234,
2010-09-09, 02:14:04,VALID,1001.15,VALID,0,VALID,93.1424,VALID,0,VALID,21.653,VALID,43,VALID,0.347656,
2010-09-09, 02:15:04,VALID,1001.18,VALID,0,VALID,93.1882,VALID,0,VALID,21.653,VALID,43,VALID,0.442187,
2010-09-09, 02:16:04,VALID,1001.17,VALID,0,VALID,93.1882,VALID,0.112286,VALID,21.6335,VALID,43,VALID,0.501953,
2010-09-09, 02:17:04,VALID,1001.19,VALID,0,VALID,93.2111,VALID,0,VALID,21.6335,VALID,43,VALID,0.595703,
2010-09-09, 02:18:04,VALID,1001.19,VALID,0,VALID,93.2492,VALID,0,VALID,21.6335,VALID,43,VALID,0.464453,
2010-09-09, 02:19:04,VALID,1001.19,VALID,0,VALID,93.3026,VALID,0,VALID,21.6335,VALID,43,VALID,0.271484,
2010-09-09, 02:20:04,VALID,1001.16,VALID,0,VALID,93.295,VALID,0,VALID,21.6335,VALID,43,VALID,0,
2010-09-09, 02:21:04,VALID,1001.18,VALID,0,VALID,93.3179,VALID,0,VALID,21.6335,VALID,43,VALID,0.108594,
2010-09-09, 02:22:04,VALID,1001.14,VALID,0,VALID,93.3255,VALID,0,VALID,21.5945,VALID,43,VALID,0,
2010-09-09, 02:23:04,VALID,1001.15,VALID,0,VALID,93.3026,VALID,0,VALID,21.575,VALID,43,VALID,0,
2010-09-09, 02:24:04,VALID,1001.15,VALID,0,VALID,93.3103,VALID,0,VALID,21.575,VALID,43,VALID,0,
2010-09-09, 02:25:04,VALID,1001.14,VALID,0,VALID,93.3103,VALID,0,VALID,21.5555,VALID,43,VALID,0,
2010-09-09, 02:26:04,VALID,1001.15,VALID,0,VALID,93.3331,VALID,0,VALID,21.575,VALID,43,VALID,0,
2010-09-09, 02:27:04,VALID,1001.16,VALID,0,VALID,93.356,VALID,0,VALID,21.5945,VALID,43,VALID,0,
2010-09-09, 02:28:04,VALID,1001.14,VALID,0,VALID,93.4018,VALID,0,VALID,21.614,VALID,43,VALID,0.0289063,
2010-09-09, 02:29:04,VALID,1001.15,VALID,0,VALID,93.4171,VALID,0,VALID,21.614,VALID,43,VALID,0,
2010-09-09, 02:30:04,VALID,1001.13,VALID,0,VALID,93.4552,VALID,0,VALID,21.653,VALID,82,VALID,0.539844,
2010-09-09, 02:31:04,VALID,1001.13,VALID,0,VALID,93.4781,VALID,0,VALID,21.7131,VALID,103,VALID,0.716406,
2010-09-09, 02:32:04,VALID,1001.13,VALID,0,VALID,93.4552,VALID,0,VALID,21.731,VALID,113,VALID,0.684766,
2010-09-09, 02:33:04,VALID,1001.1,VALID,0,VALID,93.4171,VALID,0,VALID,21.7488,VALID,112,VALID,0.730078,
2010-09-09, 02:34:04,VALID,1001.1,VALID,0,VALID,93.3103,VALID,0,VALID,21.809,VALID,113,VALID,0.480078,
2010-09-09, 02:35:04,VALID,1001.09,VALID,0,VALID,93.2568,VALID,0,VALID,21.848,VALID,113,VALID,0.401563,
2010-09-09, 02:36:04,VALID,1001.08,VALID,0,VALID,93.1424,VALID,0,VALID,21.8675,VALID,115,VALID,0.433984,
2010-09-09, 02:37:04,VALID,1001.07,VALID,0,VALID,93.0127,VALID,0,VALID,21.8675,VALID,115,VALID,0.548828,
2010-09-09, 02:38:04,VALID,1001.06,VALID,0,VALID,92.8525,VALID,0,VALID,21.887,VALID,115,VALID,0.560156,
2010-09-09, 02:39:04,VALID,1001.05,VALID,0,VALID,92.6999,VALID,0,VALID,21.9065,VALID,115,VALID,0.451562,
2010-09-09, 02:40:04,VALID,1001.05,VALID,0,VALID,92.5778,VALID,0,VALID,21.9065,VALID,115,VALID,0.253516,
2010-09-09, 02:41:04,VALID,1001.03,VALID,0,VALID,92.4634,VALID,0,VALID,21.9455,VALID,115,VALID,0,
2010-09-09, 02:42:04,VALID,1001.02,VALID,0,VALID,92.3794,VALID,0,VALID,21.9455,VALID,115,VALID,0,
2010-09-09, 02:43:04,VALID,1001.01,VALID,0,VALID,92.3108,VALID,0,VALID,21.965,VALID,112,VALID,0,
2010-09-09, 02:44:04,VALID,1000.99,VALID,0,VALID,92.2268,VALID,0,VALID,22.004,VALID,109,VALID,0,
2010-09-09, 02:45:04,VALID,1001.02,VALID,0,VALID,92.0971,VALID,0,VALID,22.0235,VALID,109,VALID,0,
2010-09-09, 02:46:04,VALID,1001,VALID,0,VALID,91.9217,VALID,0,VALID,22.043,VALID,109,VALID,0,
2010-09-09, 02:47:04,VALID,1001,VALID,0,VALID,91.7233,VALID,0,VALID,22.0625,VALID,109,VALID,0,
2010-09-09, 02:48:04,VALID,1000.98,VALID,0,VALID,91.502,VALID,0.112286,VALID,22.0625,VALID,37,VALID,0,
2010-09-09, 02:49:04,VALID,1000.97,VALID,0,VALID,91.2121,VALID,0,VALID,22.043,VALID,28,VALID,0,
2010-09-09, 02:50:04,VALID,1001.01,VALID,0,VALID,91.1206,VALID,0,VALID,22.004,VALID,28,VALID,0,
2010-09-09, 02:51:04,VALID,1001.01,VALID,0,VALID,91.1282,VALID,0,VALID,21.9845,VALID,28,VALID,0,
2010-09-09, 02:52:04,VALID,1000.99,VALID,0,VALID,91.2808,VALID,0,VALID,21.965,VALID,28,VALID,0,
2010-09-09, 02:53:04,VALID,1000.98,VALID,0,VALID,91.38,VALID,0,VALID,21.9243,VALID,28,VALID,0,
2010-09-09, 02:54:04,VALID,1000.98,VALID,0,VALID,91.4715,VALID,0,VALID,21.8853,VALID,28,VALID,0,
2010-09-09, 02:55:04,VALID,1000.98,VALID,0,VALID,91.5936,VALID,0,VALID,21.848,VALID,28,VALID,0,
2010-09-09, 02:56:04,VALID,1000.98,VALID,0,VALID,91.6851,VALID,0,VALID,21.8285,VALID,28,VALID,0,
2010-09-09, 02:57:04,VALID,1000.99,VALID,0,VALID,91.8148,VALID,0,VALID,21.7895,VALID,28,VALID,0,
2010-09-09, 02:58:04,VALID,1000.97,VALID,0,VALID,91.9674,VALID,0.112286,VALID,21.77,VALID,28,VALID,0,
2010-09-09, 02:59:04,VALID,1000.96,VALID,0,VALID,92.1277,VALID,0,VALID,21.7505,VALID,28,VALID,0,
2010-09-09, 03:00:04,VALID,1000.95,VALID,0,VALID,92.2345,VALID,0,VALID,21.7098,VALID,28,VALID,0,
2010-09-09, 03:01:04,VALID,1000.96,VALID,0,VALID,92.3794,VALID,0,VALID,21.7098,VALID,28,VALID,0,
2010-09-09, 03:02:04,VALID,1000.95,VALID,0,VALID,92.4786,VALID,0,VALID,21.731,VALID,28,VALID,0,
2010-09-09, 03:03:04,VALID,1000.97,VALID,0,VALID,92.6007,VALID,0,VALID,21.7505,VALID,28,VALID,0,
2010-09-09, 03:04:04,VALID,1000.98,VALID,0,VALID,92.6694,VALID,0,VALID,21.7505,VALID,28,VALID,0,
2010-09-09, 03:05:04,VALID,1000.97,VALID,0,VALID,92.7075,VALID,0,VALID,21.7505,VALID,28,VALID,0,
2010-09-09, 03:06:04,VALID,1000.96,VALID,0,VALID,92.7151,VALID,0,VALID,21.731,VALID,28,VALID,0,
2010-09-09, 03:07:04,VALID,1000.97,VALID,0,VALID,92.6923,VALID,0,VALID,21.6903,VALID,28,VALID,0,
2010-09-09, 03:08:04,VALID,1000.97,VALID,0,VALID,92.7304,VALID,0,VALID,21.6903,VALID,28,VALID,0,
2010-09-09, 03:09:04,VALID,1000.93,VALID,0,VALID,92.7762,VALID,0,VALID,21.7115,VALID,28,VALID,0,
2010-09-09, 03:10:04,VALID,1000.97,VALID,0,VALID,92.7685,VALID,0,VALID,21.692,VALID,28,VALID,0,
2010-09-09, 03:11:04,VALID,1000.91,VALID,0,VALID,92.8143,VALID,0,VALID,21.6725,VALID,28,VALID,0,
2010-09-09, 03:12:04,VALID,1000.93,VALID,0,VALID,92.7991,VALID,0,VALID,21.6725,VALID,28,VALID,0,
2010-09-09, 03:13:04,VALID,1000.91,VALID,0,VALID,92.7991,VALID,0,VALID,21.653,VALID,28,VALID,0,
2010-09-09, 03:14:04,VALID,1000.9,VALID,0,VALID,92.8143,VALID,0,VALID,21.614,VALID,28,VALID,0,
2010-09-09, 03:15:04,VALID,1000.94,VALID,0,VALID,92.8754,VALID,0,VALID,21.6123,VALID,28,VALID,0,
2010-09-09, 03:16:04,VALID,1000.92,VALID,0,VALID,92.9288,VALID,0,VALID,21.6335,VALID,28,VALID,0,
2010-09-09, 03:17:04,VALID,1000.94,VALID,0,VALID,92.9822,VALID,0,VALID,21.6335,VALID,28,VALID,0,
2010-09-09, 03:18:04,VALID,1000.92,VALID,0,VALID,93.0203,VALID,0,VALID,21.6335,VALID,28,VALID,0,
2010-09-09, 03:19:04,VALID,1000.9,VALID,0,VALID,93.0356,VALID,0,VALID,21.6335,VALID,28,VALID,0,
2010-09-09, 03:20:04,VALID,1000.9,VALID,0,VALID,93.0661,VALID,0,VALID,21.6335,VALID,28,VALID,0,
2010-09-09, 03:21:04,VALID,1000.89,VALID,0,VALID,93.1195,VALID,0,VALID,21.614,VALID,28,VALID,0,
2010-09-09, 03:22:04,VALID,1000.85,VALID,0,VALID,93.1577,VALID,0,VALID,21.614,VALID,28,VALID,0,
2010-09-09, 03:23:04,VALID,1000.88,VALID,0,VALID,93.1958,VALID,0,VALID,21.5945,VALID,28,VALID,0,
2010-09-09, 03:24:04,VALID,1000.89,VALID,0,VALID,93.2034,VALID,0.112286,VALID,21.575,VALID,28,VALID,0,
2010-09-09, 03:25:04,VALID,1000.91,VALID,0,VALID,93.234,VALID,0,VALID,21.5555,VALID,28,VALID,0,
2010-09-09, 03:26:04,VALID,1000.88,VALID,0,VALID,93.2568,VALID,0,VALID,21.536,VALID,28,VALID,0,
2010-09-09, 03:27:04,VALID,1000.92,VALID,0,VALID,93.2568,VALID,0,VALID,21.5165,VALID,28,VALID,0,
2010-09-09, 03:28:04,VALID,1000.93,VALID,0,VALID,93.3179,VALID,0,VALID,21.5165,VALID,28,VALID,0,
2010-09-09, 03:29:04,VALID,1000.96,VALID,0,VALID,93.3713,VALID,0,VALID,21.5165,VALID,28,VALID,0,
2010-09-09, 03:30:04,VALID,1000.98,VALID,0,VALID,93.4094,VALID,0,VALID,21.536,VALID,28,VALID,0,
2010-09-09, 03:31:04,VALID,1000.96,VALID,0,VALID,93.4705,VALID,0,VALID,21.5555,VALID,28,VALID,0,
2010-09-09, 03:32:04,VALID,1000.98,VALID,0,VALID,93.4857,VALID,0,VALID,21.575,VALID,28,VALID,0,
2010-09-09, 03:33:04,VALID,1001.02,VALID,0,VALID,93.5544,VALID,0,VALID,21.5945,VALID,28,VALID,0,
2010-09-09, 03:34:04,VALID,1001.03,VALID,0,VALID,93.5773,VALID,0,VALID,21.5733,VALID,28,VALID,0,
2010-09-09, 03:35:04,VALID,1001.05,VALID,0,VALID,93.562,VALID,0,VALID,21.575,VALID,28,VALID,0,
2010-09-09, 03:36:04,VALID,1001.03,VALID,0,VALID,93.562,VALID,0,VALID,21.5555,VALID,28,VALID,0,
2010-09-09, 03:37:04,VALID,1001.05,VALID,0,VALID,93.5544,VALID,0,VALID,21.536,VALID,28,VALID,0,
2010-09-09, 03:38:04,VALID,1001.06,VALID,0,VALID,93.5544,VALID,0,VALID,21.536,VALID,28,VALID,0,
2010-09-09, 03:39:04,VALID,1001.07,VALID,0,VALID,93.5468,VALID,0.112286,VALID,21.536,VALID,28,VALID,0,
2010-09-09, 03:40:04,VALID,1001.1,VALID,0,VALID,93.5468,VALID,0,VALID,21.5165,VALID,28,VALID,0,
2010-09-09, 03:41:04,VALID,1001.1,VALID,0,VALID,93.5544,VALID,0,VALID,21.5555,VALID,109,VALID,0,
2010-09-09, 03:42:04,VALID,1001.1,VALID,0,VALID,93.6002,VALID,0,VALID,21.5945,VALID,130,VALID,0,
2010-09-09, 03:43:04,VALID,1001.11,VALID,0,VALID,93.6002,VALID,0,VALID,21.6335,VALID,130,VALID,0,
2010-09-09, 03:44:04,VALID,1001.08,VALID,0,VALID,93.6154,VALID,0,VALID,21.6725,VALID,132,VALID,0,
2010-09-09, 03:45:04,VALID,1001.1,VALID,0,VALID,93.6078,VALID,0,VALID,21.6903,VALID,136,VALID,0,
2010-09-09, 03:46:04,VALID,1001.07,VALID,0,VALID,93.6154,VALID,0,VALID,21.731,VALID,136,VALID,0,
2010-09-09, 03:47:04,VALID,1001.03,VALID,0,VALID,93.6078,VALID,0,VALID,21.7505,VALID,136,VALID,0,
2010-09-09, 03:48:04,VALID,1001.05,VALID,0,VALID,93.5926,VALID,0.112286,VALID,21.77,VALID,136,VALID,0,
2010-09-09, 03:49:04,VALID,1001.05,VALID,0,VALID,93.5544,VALID,0,VALID,21.7895,VALID,136,VALID,0,
2010-09-09, 03:50:04,VALID,1001.05,VALID,0,VALID,93.4934,VALID,0.112286,VALID,21.7878,VALID,136,VALID,0,
2010-09-09, 03:51:04,VALID,1001.03,VALID,0,VALID,93.4705,VALID,0,VALID,21.7683,VALID,136,VALID,0,
2010-09-09, 03:52:04,VALID,1001.04,VALID,0,VALID,93.4247,VALID,0.112286,VALID,21.809,VALID,136,VALID,0,